Location: Ca�n Batista
(41.4099°N, 1.7752°E)
Time: 13:35:12
(UTC+00:00)

Lacrosse 4 Rocket - Pass Details

Date: 03 March 2021
Orbit: 537 x 620 km, 68.0° (Epoch: 21 April)

Event Time Altitude Azimuth Distance (km) Brightness Sun altitude
Rises 20:46:55 0° 238° (WSW) 2,823 5.3 -34.0°
Reaches altitude 10° 20:49:26 10° 251° (WSW) 1,939 4.6 -34.4°
Enters shadow 20:50:42 16° 263° (W) 1,568 4.1 -34.6°
